This is the latest recevied weather packets stored in our database for station/object KJ5BMY-13. If no packets are shown the sender has not sent any weather packets the latest 10 day(s).
| Time | Temp. | Humidity | Pressure | Rain* | Wind** | Luminosity | Snow |
|---|---|---|---|---|---|---|---|
| 1777754572 | 27.78° C | 32% | 1022 hPa | 0 mm | - | - | - |
| 1777754270 | 27.22° C | 34% | 1022 hPa | 0 mm | - | - | - |
| 1777753968 | 27.22° C | 31% | 1022 hPa | 0 mm | - | - | - |
| 1777753667 | 27.22° C | 31% | 1022.1 hPa | 0 mm | - | - | - |
| 1777753366 | 27.22° C | 31% | 1022.2 hPa | 0 mm | - | - | - |
| 1777753064 | 27.78° C | 33% | 1022.3 hPa | 0 mm | - | - | - |
| 1777752759 | 27.22° C | 28% | 1022.2 hPa | 0 mm | - | - | - |
| 1777752455 | 27.22° C | 31% | 1022.4 hPa | 0 mm | - | - | - |
| 1777752152 | 26.67° C | 29% | 1022.4 hPa | 0 mm | - | - | - |
| 1777751850 | 27.22° C | 35% | 1022.5 hPa | 0 mm | - | - | - |
| 1777751547 | 26.67° C | 33% | 1022.6 hPa | 0 mm | - | - | - |
| 1777751243 | 26.67° C | 31% | 1022.6 hPa | 0 mm | - | - | - |
| 1777750940 | 26.67° C | 33% | 1022.5 hPa | 0 mm | - | - | - |
| 1777750641 | 26.67° C | 32% | 1022.4 hPa | 0 mm | - | - | - |
| 1777750339 | 26.11° C | 30% | 1022.8 hPa | 0 mm | - | - | - |
| 1777750038 | 26.11° C | 31% | 1022.7 hPa | 0 mm | - | - | - |
| 1777749736 | 25.56° C | 31% | 1022.9 hPa | 0 mm | - | - | - |
| 1777749433 | 26.11° C | 36% | 1022.8 hPa | 0 mm | - | - | - |
| 1777749131 | 26.11° C | 32% | 1022.9 hPa | 0 mm | - | - | - |
| 1777748828 | 25.56° C | 32% | 1022.9 hPa | 0 mm | - | - | - |
| 1777748525 | 25° C | 33% | 1023 hPa | 0 mm | - | - | - |
| 1777748225 | 25° C | 35% | 1023.1 hPa | 0 mm | - | - | - |
| 1777747922 | 25° C | 37% | 1023.2 hPa | 0 mm | - | - | - |
| 1777747618 | 25.56° C | 31% | 1023.2 hPa | 0 mm | - | - | - |
| 1777747318 | 25.56° C | 31% | 1023.4 hPa | 0 mm | - | - | - |
* Rain latest hour (hover to see other rain measurements)
** Current wind speed in m/s (hover to see current wind gust speed)